Location: Sungai Bunut
(2.6333°N, 113.7333°E)
Time: 02:41:19
(UTC+00:00)

Vanguard 3 - Pass Details

Date: 12 December 2023
Orbit: 508 x 3239 km, 33.4° (Epoch: 24 February)

Event Time Altitude Azimuth Distance (km) Brightness Sun altitude
Rises 05:36:32 0° 211° (SSW) 5,390 11.8 58.0°
Reaches altitude 10° 05:40:27 10° 200° (SSW) 4,775 11.8 57.5°
Maximum altitude 05:52:44 30° 143° (SE) 4,235 11.3 55.5°
Drops below altitude 10° 06:08:26 10° 90° (E) 6,171 11.5 52.9°
Sets 06:14:18 0° 80° (E) 7,160 11.7 51.8°
